Wind_Speed
35 35 35 35 35 34 33 32 32 31 31 30 30 29 28 27 26 26 26 25 25 25 25 24 24 23 23 23 22 21 21 21 20 20 20 20 20 20 20 20 20 20 20
36 36 37 37 37 36 35 35 34 33 33 33 31 31 30 29 28 27 27 27 27 26 26 26 25 25 24 24 24 24 23 22 22 22 21 21 22 22 21 22 22 22 22
37 38 38 38 38 38 38 37 36 35 35 35 34 32 32 31 30 29 29 28 28 28 28 27 27 26 26 25 25 25 24 24 23 23 23 22 23 23 23 23 23 23 23
39 39 40 40 40 40 40 39 39 37 37 37 36 35 33 33 32 31 31 30 30 29 29 29 28 28 28 27 26 26 25 25 25 24 24 24 23 24 24 25 24 24 24
40 40 41 41 41 41 42 41 41 40 39 39 38 37 37 36 35 34 33 32 32 31 30 30 30 30 30 29 29 28 27 27 27 25 25 25 25 25 25 25 26 25 25
41 42 43 43 43 43 43 43 43 42 41 41 40 40 39 39 38 37 36 35 34 33 32 32 32 31 31 31 31 30 30 29 28 28 27 26 26 27 27 27 27 27 27
43 42 43 43 44 44 45 45 45 45 44 44 43 42 42 41 41 39 38 37 37 36 34 34 34 33 33 32 32 32 31 31 30 30 29 28 28 28 28 28 28 28 28
45 44 44 44 44 45 46 46 46 46 46 46 46 45 44 43 43 42 41 40 39 38 36 36 36 35 34 33 33 33 33 32 32 32 31 30 30 30 30 30 30 30 30
46 46 45 45 46 46 47 47 47 47 47 47 47 46 46 45 44 43 43 42 41 40 39 38 37 37 36 35 35 34 33 33 34 33 32 32 32 32 32 31 31 31 31
46 47 46 45 46 47 47 48 48 48 48 48 47 47 47 47 46 46 45 43 43 42 41 39 39 39 39 38 36 36 35 34 34 34 34 34 33 33 33 32 32 32 32
47 47 47 47 47 47 48 49 49 49 49 49 48 47 48 48 48 48 46 46 45 44 43 42 41 41 40 40 39 38 37 36 35 35 35 35 35 35 34 33 33 33 34
47 48 49 49 49 48 48 49 50 49 50 50 49 48 48 48 48 48 48 47 47 46 45 44 43 43 42 41 41 40 39 38 37 37 36 37 37 36 35 35 35 35 35
47 48 48 49 50 50 49 50 51 50 51 51 50 49 49 48 48 49 49 48 48 47 46 46 45 44 43 43 42 41 40 40 39 38 38 38 38 38 37 36 36 37 36
48 48 50 50 51 52 52 51 51 50 51 51 50 50 50 50 50 49 49 49 49 49 47 46 46 45 44 43 43 43 42 41 41 41 40 40 39 39 39 39 38 38 38
49 50 51 51 51 51 52 51 51 51 51 51 51 51 51 51 51 51 51 50 50 50 48 47 46 46 45 45 45 44 43 43 43 42 42 41 41 40 40 40 40 40 40
49 49 51 51 51 50 50 50 51 52 51 51 52 52 52 52 52 51 51 51 51 51 50 49 48 48 47 46 46 46 45 44 44 44 43 42 42 42 42 41 41 41 41
49 49 49 49 50 50 50 49 49 51 51 51 52 52 52 53 53 52 51 51 51 51 51 50 49 48 47 47 47 47 46 45 45 44 44 44 44 44 43 43 42 42 41
49 48 48 48 48 49 50 49 49 50 51 51 51 51 51 51 53 52 52 52 52 51 51 50 50 49 48 48 48 47 46 45 45 45 45 45 45 44 44 43 42 42 41
47 47 47 47 48 48 49 49 49 50 50 50 50 51 51 51 52 52 52 52 52 51 51 51 51 50 49 48 48 48 47 46 46 46 46 45 45 44 44 43 43 42 42
44 45 46 47 47 48 48 49 49 49 50 50 51 51 51 51 51 52 52 51 52 52 53 52 51 50 49 49 48 48 48 47 47 46 46 46 45 45 45 44 44 44 44
42 43 44 45 46 47 47 47 48 48 49 50 51 51 51 51 51 51 51 51 51 51 52 52 51 51 50 49 49 48 48 48 47 47 47 47 46 46 46 45 45 45 45
41 42 43 44 44 45 47 47 47 47 47 48 49 49 49 50 50 50 50 50 50 50 51 52 51 51 50 50 49 49 48 48 47 47 48 47 47 47 47 46 46 46 46
39 40 41 42 43 44 46 48 48 48 48 48 48 49 49 50 50 50 51 50 50 50 50 50 50 50 50 49 49 48 48 47 47 47 48 48 48 47 47 47 47 47 47
38 38 39 40 41 42 44 45 47 48 48 48 48 49 49 50 50 50 50 50 50 50 50 50 49 49 49 49 48 47 47 47 47 47 48 48 48 48 48 48 49 48 47
37 37 38 39 40 40 42 44 45 45 46 46 47 48 48 49 50 50 49 49 50 50 50 50 50 49 50 50 48 47 47 47 47 46 47 48 47 48 48 48 48 48 48
35 36 36 37 38 39 41 42 43 44 44 44 45 45 46 47 48 48 48 48 48 49 48 48 48 48 49 49 48 47 46 47 47 46 46 47 47 48 48 48 49 48 48
Wind_Direction
256 254 253 252 252 251 251 250 250 250 250 248 248 248 249 249 249 249 247 247 247 246 246 246 247 248 249 250 251 252 254 257 259 258 260 262 263 264 266 269 271 273 274
257 254 253 253 252 251 250 249 250 250 250 249 248 248 248 249 249 249 249 249 248 247 247 247 249 249 250 251 252 253 255 258 259 260 260 261 262 265 267 269 271 273 274
259 256 254 253 252 251 251 250 249 249 249 249 249 248 247 248 249 249 250 250 249 248 248 248 249 250 250 251 252 254 256 258 259 262 262 262 263 264 266 268 271 273 275
260 258 255 253 252 251 251 250 249 248 249 248 248 247 247 248 248 249 249 250 250 249 249 248 249 251 251 251 252 254 256 258 260 262 263 263 265 266 267 268 270 273 273
258 258 256 254 253 251 250 249 249 248 248 248 248 248 249 248 248 248 248 249 249 250 250 250 250 251 252 253 254 254 257 260 260 262 263 265 266 268 270 270 271 272 273
257 256 255 253 252 252 251 250 249 248 248 248 249 249 249 249 249 248 248 249 249 250 250 251 251 252 253 254 255 255 258 260 260 261 263 264 266 268 269 270 273 273 274
257 256 255 255 253 252 250 249 249 249 249 249 249 249 249 249 249 248 248 248 248 249 250 251 252 253 253 255 255 255 257 260 260 261 262 263 265 267 269 271 273 274 274
256 256 257 256 255 253 251 250 249 250 250 250 249 250 249 248 248 248 247 247 248 249 249 250 251 252 253 255 255 257 259 260 261 262 262 263 265 267 269 270 273 275 276
257 257 257 257 255 254 252 250 250 250 250 250 250 250 249 248 247 247 246 246 247 248 249 249 250 251 253 254 256 257 259 261 262 263 263 263 265 266 265 267 270 273 275
257 257 257 256 255 254 253 251 251 250 250 249 250 250 249 248 247 246 246 246 246 247 248 249 250 251 253 254 255 257 259 261 262 262 263 264 265 266 265 267 269 271 274
259 258 257 257 256 255 253 252 251 250 250 250 250 250 249 248 247 247 247 247 247 247 248 249 250 252 253 254 254 256 259 260 261 262 263 265 265 265 266 268 271 273 275
259 258 257 255 255 254 254 253 252 251 250 250 250 249 248 248 247 247 247 247 248 248 248 249 250 251 253 254 254 256 258 259 261 263 264 265 265 265 266 269 271 273 274
260 258 257 256 256 255 254 254 252 251 250 249 249 248 248 247 247 247 246 246 247 248 248 250 251 252 253 254 254 255 256 258 260 261 263 264 265 265 266 269 271 272 273
261 259 258 257 256 255 254 254 253 252 250 249 249 249 248 247 247 246 246 246 247 248 249 250 251 252 252 254 255 255 256 257 259 260 262 263 264 266 267 269 270 271 272
262 260 258 257 256 255 255 254 253 252 251 249 249 249 248 248 247 247 247 246 247 247 248 249 250 251 252 253 255 256 256 257 258 259 260 262 264 266 268 268 269 270 272
262 261 260 258 256 254 254 253 252 251 251 250 249 249 249 248 248 248 247 247 247 246 247 248 250 251 252 253 254 256 257 258 258 258 259 261 264 266 267 268 268 269 271
262 261 259 256 254 253 252 252 251 250 250 250 249 249 248 248 247 247 247 247 247 247 247 248 249 250 250 252 254 255 256 258 258 258 259 261 263 265 267 268 268 270 271
262 260 258 255 253 252 251 250 250 249 249 249 248 248 247 247 246 246 246 247 247 247 247 247 248 250 250 252 254 255 256 258 258 258 259 260 262 265 266 266 268 269 270
262 260 258 255 253 251 250 250 249 249 249 248 247 247 247 247 246 246 246 246 246 246 246 247 249 250 251 252 253 254 255 256 258 259 259 260 262 264 264 265 267 268 270
262 260 258 255 253 251 249 249 248 247 247 246 246 246 247 246 246 245 245 245 246 246 246 248 249 250 251 252 253 254 255 256 257 258 259 260 261 262 262 264 266 267 269
264 261 259 257 254 251 249 248 247 247 246 246 246 246 246 246 246 246 245 245 246 246 247 248 249 250 251 252 252 253 254 256 257 258 258 259 260 261 262 263 265 267 269
264 262 259 256 254 251 248 247 247 246 246 246 247 247 246 246 246 246 245 245 246 247 248 248 249 250 251 251 251 252 253 255 256 257 257 258 259 261 262 263 265 267 270
265 262 259 256 254 251 248 247 247 247 246 246 246 246 247 247 246 246 245 245 246 247 248 249 249 250 250 250 251 252 253 255 256 256 257 259 260 262 262 263 266 269 270
264 263 259 257 254 252 249 248 248 248 247 246 246 246 246 247 247 247 245 246 247 249 249 249 249 250 250 250 251 252 253 255 256 257 258 260 261 262 263 265 267 269 270
265 264 261 258 255 252 249 249 248 247 246 246 245 245 246 246 246 245 245 246 248 249 249 249 249 250 249 250 251 252 253 254 255 257 259 260 261 262 264 265 267 268 269
266 264 263 259 255 252 250 248 248 247 246 246 245 245 245 245 244 244 245 247 247 248 248 248 249 250 249 250 251 252 253 254 255 256 258 260 262 263 264 265 265 267 268
Height
5776 5778 5780 5782 5784 5786 5788 5790 5792 5794 5796 5798 5800 5801 5803 5805 5807 5808 5810 5812 5813 5815 5817 5818 5820 5821 5823 5824 5826 5827 5828 5829 5830 5830 5831 5832 5832 5833 5833 5833 5834 5834 5834
5767 5769 5771 5774 5776 5778 5780 5783 5785 5787 5789 5791 5793 5795 5797 5799 5801 5803 5804 5806 5808 5810 5811 5813 5815 5816 5818 5819 5821 5822 5823 5824 5825 5825 5826 5827 5828 5828 5828 5829 5829 5829 5829
5758 5760 5762 5765 5767 5769 5772 5774 5777 5779 5782 5784 5786 5788 5790 5792 5794 5796 5798 5800 5802 5804 5806 5808 5809 5811 5812 5814 5815 5817 5818 5818 5819 5820 5821 5822 5822 5823 5823 5823 5823 5824 5824
5749 5751 5753 5755 5757 5760 5763 5765 5768 5771 5773 5776 5778 5780 5783 5785 5787 5790 5792 5793 5796 5798 5800 5801 5803 5805 5807 5808 5809 5811 5812 5813 5814 5815 5815 5816 5817 5817 5818 5818 5818 5818 5818
5739 5741 5743 5745 5747 5750 5753 5755 5758 5761 5764 5767 5769 5772 5775 5778 5780 5782 5784 5786 5788 5791 5793 5795 5797 5799 5800 5802 5803 5805 5806 5807 5808 5809 5809 5810 5811 5812 5812 5812 5812 5812 5813
5728 5730 5732 5734 5737 5740 5742 5745 5748 5751 5754 5757 5760 5763 5766 5769 5771 5774 5776 5778 5781 5783 5785 5788 5789 5791 5793 5795 5797 5798 5799 5800 5801 5802 5803 5804 5805 5805 5805 5806 5806 5806 5806
5717 5718 5721 5723 5725 5728 5731 5734 5737 5740 5743 5746 5749 5753 5756 5759 5762 5765 5767 5770 5772 5775 5777 5780 5782 5784 5786 5788 5789 5791 5792 5793 5794 5795 5796 5797 5798 5799 5799 5799 5799 5799 5799
5705 5707 5709 5711 5713 5716 5719 5722 5725 5728 5731 5734 5738 5741 5745 5749 5751 5755 5758 5761 5763 5766 5769 5771 5773 5776 5778 5780 5782 5783 5785 5786 5787 5788 5789 5790 5791 5792 5792 5792 5792 5792 5792
5693 5695 5697 5699 5701 5704 5707 5710 5712 5716 5719 5722 5726 5729 5733 5737 5740 5744 5747 5750 5754 5757 5759 5762 5764 5767 5769 5771 5773 5775 5777 5778 5779 5780 5781 5782 5783 5784 5784 5784 5785 5785 5784
5680 5682 5684 5686 5689 5691 5694 5697 5700 5703 5706 5710 5713 5717 5721 5725 5729 5733 5736 5739 5743 5746 5749 5752 5755 5758 5760 5762 5764 5766 5768 5769 5771 5772 5773 5774 5775 5776 5776 5776 5776 5776 5776
5667 5669 5671 5673 5676 5678 5681 5684 5687 5690 5694 5697 5701 5704 5708 5712 5716 5721 5725 5729 5732 5736 5739 5742 5745 5748 5750 5753 5755 5757 5759 5761 5762 5763 5764 5766 5767 5767 5767 5768 5768 5768 5768
5654 5656 5658 5660 5662 5665 5668 5671 5674 5677 5680 5684 5687 5691 5695 5699 5703 5708 5712 5716 5720 5724 5728 5731 5734 5737 5740 5743 5745 5747 5749 5751 5753 5754 5755 5756 5757 5758 5759 5759 5759 5759 5759
5640 5642 5644 5646 5648 5651 5654 5657 5660 5663 5666 5670 5674 5678 5682 5686 5690 5694 5699 5704 5708 5712 5716 5720 5723 5726 5729 5732 5734 5737 5739 5741 5743 5744 5746 5747 5748 5749 5750 5750 5750 5750 5750
5626 5628 5630 5632 5634 5636 5639 5642 5645 5648 5652 5656 5660 5664 5668 5673 5677 5681 5686 5691 5695 5700 5704 5708 5711 5715 5718 5721 5723 5726 5728 5731 5732 5734 5735 5737 5738 5738 5740 5740 5741 5741 5741
5611 5613 5615 5617 5619 5621 5624 5627 5630 5634 5637 5641 5645 5649 5654 5658 5663 5668 5672 5677 5682 5687 5692 5696 5700 5703 5706 5709 5712 5715 5717 5720 5721 5723 5725 5726 5727 5728 5729 5729 5730 5730 5730
5596 5597 5599 5601 5604 5606 5609 5612 5616 5620 5623 5627 5631 5635 5640 5644 5649 5654 5658 5663 5668 5674 5679 5683 5687 5691 5694 5697 5700 5703 5706 5708 5710 5712 5713 5715 5716 5717 5718 5718 5719 5719 5719
5580 5582 5584 5586 5589 5592 5595 5598 5602 5605 5609 5613 5617 5621 5626 5630 5634 5639 5644 5649 5654 5659 5665 5670 5674 5678 5681 5685 5688 5691 5694 5696 5698 5700 5702 5703 5705 5705 5706 5707 5707 5708 5708
5564 5566 5568 5571 5574 5577 5580 5584 5587 5591 5594 5599 5603 5607 5611 5615 5620 5625 5630 5635 5640 5645 5651 5656 5660 5664 5668 5672 5675 5678 5681 5684 5686 5688 5690 5692 5693 5694 5695 5695 5696 5697 5697
5549 5551 5553 5556 5559 5562 5565 5569 5572 5576 5580 5585 5589 5593 5597 5601 5606 5610 5616 5621 5626 5631 5636 5642 5647 5651 5655 5659 5662 5665 5668 5671 5674 5676 5677 5679 5681 5682 5683 5684 5685 5685 5686
5535 5536 5538 5541 5544 5547 5551 5554 5558 5562 5566 5570 5575 5579 5583 5587 5592 5596 5601 5607 5612 5617 5622 5627 5633 5637 5641 5645 5649 5652 5655 5658 5661 5663 5665 5667 5668 5669 5671 5672 5673 5674 5674
5521 5523 5525 5527 5530 5533 5536 5540 5544 5548 5552 5556 5561 5565 5569 5574 5578 5582 5587 5593 5598 5603 5608 5613 5618 5623 5627 5631 5635 5639 5642 5645 5648 5650 5652 5655 5656 5657 5658 5659 5660 5661 5662
5508 5509 5511 5513 5516 5519 5522 5526 5530 5534 5538 5542 5547 5551 5556 5560 5564 5569 5574 5579 5585 5589 5594 5599 5604 5609 5614 5617 5621 5625 5628 5632 5635 5638 5639 5641 5643 5644 5645 5647 5647 5648 5649
5496 5497 5498 5500 5502 5505 5509 5512 5516 5520 5525 5529 5533 5538 5542 5547 5551 5556 5561 5566 5571 5576 5581 5586 5591 5596 5600 5604 5608 5612 5615 5617 5621 5624 5626 5628 5630 5631 5632 5633 5634 5635 5635
5484 5485 5486 5487 5489 5492 5495 5498 5502 5506 5511 5516 5520 5525 5530 5534 5538 5543 5548 5553 5558 5563 5568 5573 5578 5582 5586 5589 5594 5598 5601 5604 5607 5610 5612 5615 5616 5618 5619 5620 5620 5621 5621
5472 5473 5473 5475 5477 5480 5482 5486 5489 5493 5498 5503 5508 5512 5516 5521 5525 5530 5535 5540 5545 5550 5554 5559 5564 5568 5572 5576 5579 5583 5586 5590 5594 5596 5598 5600 5602 5603 5605 5606 5606 5607 5607
5461 5461 5462 5463 5465 5467 5470 5473 5477 5481 5486 5491 5495 5500 5504 5508 5512 5517 5522 5527 5532 5537 5541 5546 5550 5554 5558 5562 5566 5569 5573 5576 5580 5583 5584 5586 5588 5589 5591 5593 5592 5593 5593